Location: Capelle
(50.3413°N, 1.9974°E)
Time: 04:00:50
(UTC+00:00)

SL-16 R/B - Visible Passes

Search period start: 21 April 2026 00:00
Search period end: 01 May 2026 00:00
Orbit: 839 x 848 km, 71.0° (Epoch: 20 April)

Date Brightness Start Highest point End Pass type
(mag) Time Alt. Az. Time Alt. Az. Time Alt. Az.
21 Apr 5.3 02:46:22 10° N 02:48:25 12° NNE 02:50:27 10° NE visible
21 Apr 3.3 19:27:08 10° SSE 19:31:26 23° ESE 19:35:45 10° NE visible
21 Apr 2.5 21:09:20 10° SW 21:14:59 70° WNW 21:20:41 10° NNE visible
21 Apr 4.7 22:56:07 10° W 23:00:09 19° NW 23:04:12 10° N visible
22 Apr 5.3 02:31:55 10° N 02:33:52 12° NNE 02:35:48 10° NE visible
22 Apr 2.4 20:54:50 10° SW 21:00:29 73° WNW 21:06:12 10° NNE visible
22 Apr 4.7 22:41:32 10° W 22:45:37 20° NW 22:49:43 10° N visible
23 Apr 5.4 02:17:29 10° N 02:19:18 11° NNE 02:21:08 10° NE visible
23 Apr 4.4 04:00:23 10° NNW 04:05:25 31° NE 04:10:24 10° ESE visible
23 Apr 2.4 20:40:20 10° SW 20:45:59 75° WNW 20:51:42 10° NNE visible
23 Apr 4.7 22:26:57 10° W 22:31:05 20° NW 22:35:15 10° N visible
24 Apr 5.4 02:03:03 10° N 02:04:46 11° NNE 02:06:29 10° NE visible
24 Apr 4.4 03:45:55 10° NNW 03:50:54 30° NE 03:55:51 10° ESE visible
24 Apr 2.4 20:25:50 10° SSW 20:31:30 78° WNW 20:37:13 10° NNE visible
24 Apr 4.8 22:12:21 10° W 22:16:33 21° NW 22:20:47 10° NNE visible
25 Apr 5.5 01:48:37 10° N 01:50:13 11° NNE 01:51:48 10° NE visible
25 Apr 4.5 03:31:26 10° NNW 03:36:22 29° NE 03:41:17 10° ESE visible
25 Apr 2.4 20:11:20 10° SSW 20:17:00 80° WNW 20:22:44 10° NNE visible
25 Apr 4.8 21:57:46 10° W 22:02:02 21° NW 22:06:19 10° NNE visible
26 Apr 5.5 01:34:11 10° N 01:35:40 11° NNE 01:37:08 10° NNE visible
26 Apr 4.5 03:16:58 10° NNW 03:21:51 28° NE 03:26:43 10° ESE visible
26 Apr 2.3 19:56:50 10° SSW 20:02:31 83° WNW 20:08:14 10° NNE visible
26 Apr 4.8 21:43:11 10° W 21:47:30 22° NW 21:51:51 10° NNE visible
27 Apr 5.6 01:19:46 10° N 01:21:07 11° NNE 01:22:28 10° NNE visible
27 Apr 4.5 03:02:30 10° NNW 03:07:20 28° NE 03:12:10 10° E visible
27 Apr 2.3 19:42:20 10° SSW 19:48:01 85° WNW 19:53:45 10° NNE visible
27 Apr 4.8 21:28:36 10° W 21:32:58 22° NW 21:37:23 10° NNE visible
28 Apr 5.6 01:05:21 10° N 01:06:34 11° NNE 01:07:46 10° NNE visible
28 Apr 4.6 02:48:01 10° NNW 02:52:49 27° NE 02:57:36 10° E visible
28 Apr 4.8 21:14:01 10° W 21:18:27 23° NW 21:22:55 10° NNE visible
29 Apr 5.7 00:50:58 10° N 00:52:01 10° NNE 00:53:04 10° NNE visible
29 Apr 4.6 02:33:32 10° NNW 02:38:18 26° NE 02:43:02 10° E visible
29 Apr 4.8 20:59:26 10° W 21:03:55 23° NW 21:08:26 10° NNE visible
30 Apr 5.7 00:36:35 10° N 00:37:28 10° NNE 00:38:20 10° NNE visible
30 Apr 4.6 02:19:04 10° NNW 02:23:46 26° NE 02:28:28 10° E visible
30 Apr 4.8 20:44:52 10° W 20:49:24 24° NW 20:53:58 10° NNE visible
